SCP
0 0 0 0 0 0 0 0 0 0 0 0 0 0 0 0 0 0 0 0 0 0 0 0 0 0 0 0 0 0 0 0 0 0 0 0 0 0 0 0 0 0 0 0 0 0 0 0 0 0 0 0 0 0
0 0 0 0 0 0 0 0 0 0 0 0 0 0 0 0 0 0 0 0 0 0 0 0 0 0 0 0 0 0 0 0 0 0 0 0 0 0 0 0 0 0 0 0 0 0 0 0 0 0 0 0 0 0
0 0 0 0 0 0 0 0 0 0 0 0 0 0 0 0 0 0 0 0 0 0 0 0 0 0 0 0 0 0 0 0 0 0 0 0 0 0 0 0 0 0 0 0 0 0 0 0 0 0 0 0 0 0
0 0 0 0 0 0 0 0 0 0 0 0 0 0 0 0 0 0 0 0 0 0 0 0 0 0 0 0 0 0 0 0 0 0 0 0 0 0 0 0 0 0 0 0 0 0 0 0 0 0 0 0 0 0
0 0 0 0 0 0 0 0 0 0 0 0 0 0 0 0 0 0 0 0 0 0 0 0 0 0 0 0 0 0 0 0 0 0 0 0 0 0 0 0 0 0 0 0 0 0 0 0 0 0 0 0 0 0
0 0 0 0 0 0 0 0 0 0 0 0 0 0 0 0 0 0 0 0 0 0 0 0 0 0 0 0 0 0 0 0 0 0 0 0 0 0 0 0 0 0 0 0 0 0 0 0 0 0 0 0 0 0
0 0 0 0 0 0 0 0 0 0 0 0 0 0 0 0 0 0 0 0 0 0 0 0 0 0 0 0 0 0 0 0 0 0 0 0 0 0 0 0 0 0 0 0 0 0 0 0 0 0 0 0 0 0
0 0 0 0 0 0 0 0 0 0 0 0 0 0 0 0 0 0 0 0 0 0 0 0 0 0 0 0 0 0 0 0 0 0 0 0 0 0 0 0 0 0 0 0 0 0 0 0 0 0 0 0 0 0
0 0 0 0 0 0 0 0 0 0 0 0 0 0 0 0 0 0 0 0 0 0 0 0 0 0 0 0 0 0 0 0 0 0 0 0 0 0 0 0 0 0 0 0 0 0 0 0 0 0 0 0 0 0
0 0 0 0 0 0 0 0 0 0 0 0 0 0 0 0 0 0 0 0 0 0 0 0 0 0 0 0 0 0 0 0 0 0 0 0 0 0 0 0 0 0 0 0 0 0 0 0 0 0 0 0 0 0
0 -0 -0 0 0 0 0 0 0 0 0 0 0 0 0 0 0 0 0 0 0 0 0 0 0 0 0 0 0 0 0 0 0 0 0 0 0 0 0 0 0 0 0 0 0 0 0 0 0 0 0 0 0 0
0 0 -0 0 0 0 0 0 0 0 0 0 0 0 0 0 0 0 0 0 0 0 0 0 0 0 0 0 0 0 0 0 0 0 0 0 0 0 0 0 0 0 0 0 0 0 0 0 0 0 0 0 0 0
0 0 0 -0 0 0 0 0 0 0 0 0 0 0 0 0 0 0 0 0 0 0 0 0 0 0 0 0 0 0 0 0 0 0 0 0 0 0 0 0 0 0 0 0 0 0 0 0 0 0 0 0 0 0
-0 -0 0 0 0 -0 0 0 0 0 0 0 0 0 0 0 0 0 0 0 0 0 0 0 0 0 0 0 0 0 0 0 0 0 0 0 0 0 0 0 0 0 0 0 0 0 0 0 0 0 0 0 0 0
0 0 0 0 0 0 0 0 0 0 0 0 0 0 0 0 0 0 0 0 0 0 0 0 0 0 0 0 0 0 0 0 0 0 0 0 0 0 0 0 0 0 0 0 0 0 0 0 0 0 0 0 0 -0
0 0 0 0 0 0 0 0 0 0 0 0 0 0 0 0 0 0 0 0 0 0 0 0 0 0 0 0 0 0 0 0 0 0 0 0 0 0 0 0 0 0 0 0 0 0 0 0 0 0 0 -0 -0 -0
0 0 0 0 0 0 0 0 0 0 0 0 0 0 0 0 0 0 0 0 0 0 0 0 0 0 0 0 0 0 0 0 0 0 0 0 0 0 0 0 0 0 0 0 0 0 0 0 0 0 -0 -0 -0 -0
0 0 0 0 0 0 0 0 0 0 0 0 0 0 0 0 0 0 0 0 0 0 0 0 0 0 0 0 0 0 0 0 0 0 0 0 0 0 0 0 0 0 0 0 0 0 0 0 -0 -0 -0 -0 0 0
0 0 0 0 0 0 0 0 0 0 0 0 0 0 0 0 0 0 0 0 0 0 0 0 0 0 0 0 0 0 0 0 0 0 0 0 0 0 0 0 0 0 0 0 0 0 -0 -0 -0 -0 0 0 0 0
-0 -0 -0 0 0 0 0 0 0 0 0 0 0 0 0 0 0 0 0 0 0 0 0 0 0 0 0 0 0 0 0 0 0 0 0 0 0 0 0 0 0 0 0 0 -0 -0 -0 -0 0 0 0 0 0 0
0 -0 -0 0 0 0 0 0 0 0 0 0 0 0 0 0 0 0 0 0 0 0 0 0 0 0 0 0 0 0 0 0 0 0 0 0 0 0 0 0 0 0 0 -0 0 0 0 0 0 0 0 0 0 0
0 0 0 0 0 0 0 0 0 0 0 0 0 0 0 0 0 0 0 0 0 0 0 0 0 0 0 0 0 0 0 0 0 0 0 0 0 0 0 0 0 0 0 0 0 0 0 0 0 0 0 0 0 0
0 0 0 0 0 0 0 0 0 0 0 0 0 0 0 0 0 0 0 0 0 0 0 0 0 0 0 0 0 0 0 0 0 0 0 0 0 0 0 0 0 0 0 0 0 0 0 0 0 0 0 0 0 0
0 0 0 0 0 0 0 0 0 0 0 0 0 0 0 0 0 0 0 0 0 0 0 0 0 0 0 0 0 0 0 0 0 0 0 0 0 0 0 0 0 0 0 0 0 0 0 0 0 0 0 0 0 0
0 0 0 0 0 0 0 0 0 0 0 0 0 0 0 0 0 0 0 0 0 0 0 0 0 0 0 0 0 0 0 0 0 0 0 0 0 0 0 0 -0 -0 -0 -0 0 0 0 0 0 0 0 0 0 0
-0 0 0 0 0 0 0 0 0 0 0 0 0 0 0 0 0 0 0 0 0 0 0 0 0 0 0 0 0 -0 -0 0 0 0 0 0 0 0 0 0 0 -0 -0 -0 -0 0 0 0 0 0 0 0 0 0
-0 0 0 0 0 0 0 0 0 0 0 0 0 0 0 0 0 0 0 0 0 0 -0 -0 0 -0 -0 -0 -0 -0 0 -0 0 0 -0 -0 -0 -0 -0 -0 -0 -0 -0 -0 0 0 0 0 0 0 0 0 0 0
0 0 0 0 0 0 0 0 0 0 0 0 0 0 0 0 0 0 0 0 -0 -0 -0 -0 -0 0 -0 0 0 0 -0 -0 -0 -0 0 -0 -0 -0 -0 -0 -0 -0 -0 0 0 0 0 0 0 0 0 0 0 0
0 0 -0 0 -0 0 0 0 0 0 0 0 0 0 0 0 0 0 -0 -0 -0 0 0 0 0 0 0 0 0 0 0 -0 -0 0 0 0 0 0 0 0 0 0 0 0 0 0 0 0 0 0 0 0 0 0
-0 -0 0 -0 -0 -0 -0 -0 -0 -0 0 -0 -0 -0 0 0 0 0 0 -0 0 0 -0 -0 -0 -0 0 0 0 0 0 0 0 0 0 0 0 0 0 0 0 0 0 0 0 0 0 0 0 0 0 0 0 0
0 0 0 0 -0 0 0 0 0 -0 -0 -0 -0 -0 0 0 0 0 -0 -0 0 0 0 0 0 0 0 0 0 0 0 0 0 0 0 0 0 0 0 0 0 0 0 0 0 0 0 0 0 0 0 0 0 0
0 -0 -0 0 0 0 -0 -0 -0 -0 -0 -0 -0 -0 0 0 -0 0 0 0 0 0 0 0 0 0 0 0 0 0 0 0 0 0 0 0 0 0 0 0 0 0 0 0 0 0 0 0 0 0 0 0 0 0
-0 -0 -0 -0 -0 -0 -0 0 -0 -0 0 0 0 0 0 0 0 0 0 0 0 0 0 0 0 0 0 0 0 0 0 0 0 0 0 0 0 0 0 0 0 0 0 0 0 0 0 0 0 0 0 0 0 0
Wind_Speed_500mb
56 56 55 57 56 52 53 53 53 52 51 48 45 57 52 49 54 53 65 70 67 31 53 41 51 50 24 27 9 10 4 6 5 2 7 7 6 7 2 5 8 10 7 7 5 5 14 8 8 8 12 39 44 41
63 65 60 59 57 55 56 57 57 53 58 58 55 51 49 59 56 55 61 67 70 63 37 30 49 72 65 60 40 30 23 17 16 5 3 2 5 3 6 7 5 4 12 7 15 12 10 25 34 64 52 44 53 46
62 64 63 63 63 64 59 62 55 58 58 55 50 49 52 54 55 58 65 64 62 56 44 50 63 79 72 63 61 44 34 38 31 44 12 7 15 7 7 13 7 12 10 17 26 35 33 59 73 62 73 73 74 65
69 68 67 65 65 67 67 67 68 63 63 61 59 58 55 55 56 57 60 63 69 31 12 36 54 62 38 37 65 78 77 39 37 38 21 10 11 16 14 17 20 17 12 11 25 37 42 56 69 71 65 61 63 61
68 69 70 70 71 69 68 68 66 66 64 61 58 53 54 57 55 55 55 61 70 57 6 9 29 44 48 48 53 58 69 64 46 22 12 16 21 18 13 11 22 29 35 20 24 54 47 51 73 58 50 52 51 49
69 69 67 66 67 69 70 71 70 68 68 67 65 58 49 48 46 47 38 68 78 69 21 7 18 46 52 61 53 54 64 63 40 17 16 33 40 25 9 14 28 45 55 62 53 73 68 68 63 49 45 45 45 46
61 62 63 63 65 66 68 68 67 67 65 65 64 62 60 53 47 54 17 5 21 60 25 6 5 18 45 47 60 57 52 34 39 32 26 43 41 22 12 26 38 44 60 68 64 62 47 51 22 34 36 42 47 53
58 59 61 62 62 62 63 65 64 65 62 59 59 57 54 48 47 56 68 65 40 48 22 6 4 2 22 17 18 32 26 27 25 25 16 17 27 26 20 29 46 60 55 53 39 36 37 40 36 35 38 44 54 60
54 56 60 60 60 59 57 57 61 61 57 57 54 48 47 53 51 55 52 47 61 51 8 8 10 9 23 18 18 19 21 7 16 9 10 16 11 15 13 32 43 38 24 23 28 28 27 28 31 35 42 47 54 63
56 54 50 52 58 57 57 57 57 57 51 49 47 30 14 31 42 27 20 18 45 35 28 7 16 5 29 23 12 9 15 7 8 12 13 11 26 52 37 45 29 22 23 24 21 15 27 35 37 42 47 50 56 66
49 49 51 50 49 52 50 55 59 53 50 52 30 23 17 19 33 20 17 15 12 5 11 12 35 6 26 7 8 16 6 5 6 10 12 6 7 7 25 24 21 20 20 21 21 24 27 33 42 49 55 59 65 68
55 52 46 45 48 48 48 38 45 50 47 42 27 27 32 23 17 11 8 8 8 11 8 9 17 31 17 24 8 10 8 5 12 4 5 6 9 14 16 16 16 15 16 18 22 26 30 34 39 48 56 62 64 66
47 52 52 49 45 45 47 44 41 46 53 46 26 23 18 15 14 14 17 6 3 5 21 19 9 23 17 22 6 8 9 10 8 4 7 8 6 9 6 7 8 10 14 19 23 30 36 41 44 48 56 55 59 63
50 46 45 47 46 42 43 44 44 45 39 28 20 14 13 9 10 9 10 10 14 14 39 23 10 7 10 6 4 6 4 7 5 5 11 5 14 11 6 6 8 13 20 26 32 38 43 47 50 51 50 51 53 55
43 42 42 41 43 39 40 42 40 47 31 16 13 13 10 6 9 12 21 17 16 22 29 10 7 8 2 4 7 3 3 9 11 11 5 12 11 6 6 10 15 22 28 34 38 44 47 48 50 52 44 42 40 41
31 28 33 37 38 43 39 37 39 44 24 12 4 6 8 7 4 8 16 13 27 36 21 8 6 5 7 6 9 13 9 13 9 5 13 12 5 7 11 15 21 28 33 37 39 41 43 41 42 43 39 32 32 31
28 40 40 33 33 34 35 39 37 21 6 3 2 14 10 11 12 16 17 20 32 24 6 5 12 14 3 5 7 8 11 5 10 14 9 4 5 9 14 19 23 28 32 32 33 31 32 30 29 29 31 30 27 23
16 16 20 23 31 35 37 33 20 8 9 9 3 2 8 11 19 19 19 29 24 15 15 7 11 5 10 11 8 4 6 14 11 11 3 4 5 10 17 22 23 24 25 26 26 26 24 24 23 25 27 25 20 15
13 20 20 18 32 19 5 5 7 8 6 8 10 10 11 12 13 18 26 27 16 14 19 8 5 7 7 4 5 8 17 11 8 6 3 0 5 9 11 14 16 18 20 22 22 22 22 19 18 19 19 18 15 13
17 16 14 34 28 10 9 9 8 12 5 9 11 11 12 10 13 18 22 18 17 12 5 4 7 5 5 11 10 9 8 8 7 6 9 5 3 6 10 14 17 18 17 18 18 19 20 17 15 14 14 14 13 13
7 9 27 43 17 14 13 7 10 9 12 10 12 6 10 12 7 6 8 12 4 4 1 4 8 12 8 7 4 5 6 5 5 5 11 12 10 12 13 14 15 17 22 25 27 28 28 28 25 21 17 15 15 15
3 9 13 17 11 10 14 14 12 10 8 9 7 5 6 2 7 8 5 4 3 3 3 6 12 8 5 7 8 8 6 8 10 12 14 14 12 10 11 13 13 17 21 24 26 28 29 28 27 24 21 20 18 17
7 4 9 9 10 11 6 6 5 7 5 4 3 4 6 6 6 4 3 2 1 5 9 10 9 10 11 11 11 12 13 15 16 16 14 11 7 5 7 9 12 14 15 17 19 22 23 23 23 24 23 22 20 18
8 8 13 12 16 5 4 10 8 7 7 6 5 5 4 2 6 6 3 6 5 13 15 12 12 16 16 16 17 18 18 18 16 12 8 4 0 4 6 9 10 13 17 18 18 17 18 19 20 19 20 20 20 21
7 21 15 12 14 8 10 7 9 7 5 2 6 2 2 2 4 2 4 4 12 19 17 19 21 19 19 22 22 19 16 13 10 7 3 3 4 5 8 10 11 10 12 12 13 16 17 19 20 22 23 23 23 24
15 17 11 2 10 7 2 6 5 3 4 5 1 4 3 5 6 7 5 3 11 28 30 29 29 27 24 21 18 13 8 5 5 6 8 9 9 12 11 9 8 8 8 11 15 17 20 22 24 25 26 27 28 27
11 7 10 14 4 5 8 7 5 6 5 4 3 3 5 3 7 6 4 9 12 19 23 24 23 20 17 15 12 8 5 4 5 6 10 10 11 11 10 9 8 7 10 14 19 22 25 27 28 30 30 28 32 35
8 13 6 16 9 9 7 4 4 2 3 3 5 4 10 11 7 1 2 12 16 23 25 25 24 21 16 13 10 5 3 4 7 8 8 8 7 8 7 6 8 11 15 19 22 26 29 31 34 35 36 37 36 36
9 14 9 8 7 8 3 4 4 1 2 3 4 4 6 5 4 2 1 12 17 22 24 23 22 18 16 12 9 6 5 6 8 9 8 8 8 7 7 10 14 19 25 28 28 30 31 32 35 40 43 45 44 43
10 16 5 3 4 1 1 2 1 2 4 6 8 9 10 8 8 11 13 12 18 19 19 20 20 19 16 14 12 11 11 12 13 15 16 12 12 16 19 21 23 27 32 34 32 29 31 34 35 38 41 43 44 45
12 8 3 2 2 1 2 7 11 12 9 6 11 10 11 12 7 5 8 13 19 23 25 25 23 21 19 15 13 13 13 14 14 14 17 21 23 24 24 27 29 33 36 37 38 39 41 45 48 51 52 52 51 52
12 7 2 5 4 6 7 9 4 3 3 3 3 6 7 8 7 7 11 2 13 17 17 18 17 11 13 15 17 17 16 16 16 19 22 22 23 23 26 30 33 37 41 46 49 52 55 58 60 60 62 62 62 61
6 7 5 6 5 5 11 15 8 8 2 3 3 6 6 6 4 13 14 13 4 5 12 15 15 16 16 14 13 12 12 10 11 15 20 25 30 34 40 45 49 52 57 60 61 61 63 63 65 65 65 65 63 58
Wind_Direction_500mb
258 256 255 254 255 261 248 250 250 252 252 260 258 246 250 251 247 243 244 241 226 232 248 234 241 234 229 223 178 203 18 272 60 105 145 246 197 228 282 261 208 188 173 224 79 28 293 206 349 156 238 294 281 282
257 254 252 253 251 256 256 250 253 248 249 248 249 245 243 246 250 251 251 249 247 237 244 237 252 252 246 247 243 216 217 173 189 112 240 64 288 344 177 239 181 280 200 192 184 217 261 278 275 289 299 292 292 288
259 258 258 256 258 252 251 255 258 253 255 250 253 255 260 256 256 247 250 255 243 233 244 238 248 257 248 239 241 233 234 234 233 234 194 214 235 151 228 240 247 243 222 255 270 266 257 268 277 277 290 287 291 293
259 257 257 256 257 258 255 253 253 254 253 251 252 254 257 258 255 255 248 247 249 236 230 245 248 239 248 238 235 237 244 240 243 233 224 216 233 211 251 253 234 238 176 214 250 263 268 264 266 273 280 290 291 292
263 261 259 256 256 257 258 258 256 253 253 251 247 251 250 256 258 255 252 247 251 241 291 262 242 238 247 245 243 242 241 240 235 233 225 243 246 241 238 238 245 228 241 235 250 261 263 274 279 283 287 291 289 284
264 263 261 257 257 257 259 258 257 255 252 252 251 246 247 255 255 252 260 259 248 246 253 222 246 239 243 245 240 237 238 237 223 226 239 242 238 205 233 248 256 253 245 243 248 260 270 274 280 285 286 285 286 290
264 263 262 260 259 259 259 257 254 251 251 250 248 246 241 246 243 235 230 261 237 223 230 252 246 215 230 231 232 226 223 209 221 236 239 247 242 216 244 255 268 261 256 255 262 263 270 277 261 278 289 293 294 297
267 265 262 260 259 258 256 255 252 248 245 246 244 240 239 240 248 246 246 253 232 204 214 229 247 302 195 187 198 210 210 213 219 230 238 232 250 231 249 254 256 257 260 261 252 260 263 276 286 290 293 297 299 301
268 268 263 258 257 255 255 254 248 244 242 240 241 235 236 234 235 244 254 256 254 210 221 201 162 230 184 193 182 179 189 197 217 218 224 204 221 225 212 238 249 246 243 253 269 275 281 284 292 299 302 306 308 310
268 267 263 261 256 253 257 251 248 237 232 235 223 214 210 219 233 233 217 219 208 207 217 196 181 198 177 174 184 164 193 210 211 226 205 221 246 250 245 247 242 246 255 269 287 274 285 294 303 306 309 310 310 311
272 268 263 261 255 253 257 244 233 232 219 217 196 192 192 184 184 191 212 203 193 229 215 185 189 141 194 150 187 204 196 215 216 239 176 213 259 213 226 225 235 246 263 279 284 288 292 297 305 308 309 311 312 314
264 264 264 260 258 254 250 237 216 218 218 210 190 168 178 183 193 202 193 182 201 213 193 154 181 188 191 198 164 192 201 177 235 116 184 238 233 192 199 207 224 244 262 275 287 291 293 296 300 302 305 308 310 312
263 259 254 255 259 249 244 243 231 225 228 207 196 163 182 180 200 190 178 230 189 183 175 176 181 169 167 192 195 185 216 228 108 158 225 228 124 160 178 210 234 259 275 285 290 293 297 300 304 306 307 311 311 311
261 258 254 251 248 244 233 227 226 227 223 195 174 190 186 177 207 179 170 179 210 199 179 165 128 161 178 173 188 199 206 134 240 228 230 219 164 165 193 246 264 287 297 301 305 305 307 309 310 312 315 314 312 313
256 259 243 244 239 237 230 220 218 218 227 215 188 186 183 164 104 154 166 153 177 172 152 118 96 161 189 215 207 168 193 234 207 220 222 153 160 198 265 297 308 309 307 308 312 313 314 314 313 311 316 313 312 312
239 246 244 243 241 231 221 224 219 220 226 223 131 100 98 89 347 170 188 187 177 163 144 124 133 146 209 198 201 212 182 218 238 190 152 165 197 291 307 315 317 315 314 313 312 311 312 314 315 315 318 319 316 315
238 248 250 241 230 216 216 217 216 208 209 78 120 125 115 113 151 159 164 167 166 165 173 153 173 207 82 196 232 193 206 214 158 150 162 232 300 312 313 318 319 316 316 315 314 316 316 318 316 319 323 328 324 319
219 240 235 220 210 205 207 193 176 133 73 50 14 18 113 113 135 153 164 165 162 194 163 177 127 156 194 193 249 197 167 162 151 165 190 289 320 324 323 327 329 326 326 327 324 323 321 324 329 333 333 333 334 339
224 231 219 199 187 181 99 54 62 98 80 81 107 132 107 113 124 143 156 169 168 149 134 111 138 200 225 179 177 172 170 170 162 179 201 236 343 343 342 345 349 349 347 342 341 341 342 337 331 332 341 348 353 4
310 293 155 183 191 140 93 48 61 83 107 140 116 100 100 103 124 124 134 147 145 135 93 157 210 176 132 139 134 153 181 184 187 143 145 120 79 35 29 30 25 21 20 22 17 16 17 22 14 10 12 10 16 23
323 112 152 159 135 81 89 75 65 81 118 97 117 102 93 108 124 151 110 117 115 66 263 146 137 137 131 152 180 187 197 192 170 169 148 136 113 83 65 52 44 39 39 37 37 36 33 29 26 27 30 35 37 42
112 87 83 89 85 80 78 54 101 103 85 105 90 65 78 85 33 32 56 55 95 115 123 145 157 144 158 169 178 179 165 147 137 134 131 133 115 98 71 53 42 38 36 36 35 34 33 33 35 37 42 45 44 44
130 74 70 64 86 61 64 80 90 43 90 96 107 79 38 25 15 28 37 293 260 186 166 158 164 166 168 167 158 149 139 134 132 132 132 125 109 59 17 3 13 18 21 21 22 25 24 26 30 32 35 37 38 37
104 55 36 45 39 81 67 34 48 64 65 41 53 75 348 286 10 40 247 268 192 175 172 168 172 177 168 156 144 138 137 137 133 135 137 140 346 343 339 343 347 356 5 9 10 10 11 14 16 15 16 17 17 18
89 10 16 8 24 44 42 25 359 56 80 3 97 40 301 292 68 29 242 270 191 183 180 186 187 184 165 149 144 142 141 139 141 150 181 254 299 318 332 335 338 341 357 9 12 16 17 16 15 13 11 8 6 2
67 5 37 309 348 68 317 59 37 129 116 56 31 309 22 76 60 258 240 226 216 202 198 191 179 171 166 161 159 159 170 196 238 267 269 268 275 291 298 304 322 340 7 17 19 17 13 11 9 7 5 1 357 354
62 338 22 31 20 91 69 63 104 83 73 124 236 61 70 111 245 252 234 206 185 180 174 172 171 165 163 173 181 183 194 244 286 296 303 304 298 290 281 279 301 317 335 343 348 349 350 351 350 349 348 349 345 342
75 27 71 339 26 33 120 62 66 125 219 172 118 172 174 193 227 235 213 181 170 168 167 166 170 178 185 187 190 215 249 303 316 323 313 318 314 302 288 281 296 312 321 326 329 331 331 333 334 335 337 338 339 336
40 357 357 14 15 41 69 129 203 112 137 185 152 247 252 244 239 213 199 190 186 182 184 186 190 194 197 204 220 238 280 301 315 327 329 325 322 326 320 315 313 314 313 316 318 318 319 321 324 327 331 331 330 328
3 359 25 48 83 336 326 83 90 186 245 260 279 287 278 276 275 269 254 231 207 202 199 197 202 208 213 231 240 258 273 287 299 307 308 309 304 310 314 310 306 304 303 306 308 309 308 310 313 316 319 321 322 321
344 336 337 27 219 36 332 309 294 281 263 264 254 258 279 302 337 11 230 207 200 204 211 215 220 225 234 249 268 277 279 284 296 301 302 303 305 308 307 303 301 299 299 298 299 301 302 304 306 308 310 312 314 315
339 24 56 356 320 348 341 345 306 291 261 272 275 302 313 312 315 44 21 285 231 229 230 233 238 250 264 256 257 272 286 290 296 295 299 307 312 313 309 307 306 303 300 298 298 298 298 299 300 303 304 305 307 308
323 341 342 330 342 10 353 346 21 354 292 316 340 335 332 327 277 24 20 11 4 198 210 219 224 231 248 267 277 278 282 292 300 309 310 309 309 307 306 306 305 304 303 300 297 295 294 294 295 297 298 300 302 304
Wind_Speed_850mb
56 56 55 57 56 52 53 53 53 52 51 48 45 57 52 49 54 53 65 70 67 31 53 41 51 50 24 27 9 10 4 6 5 2 7 7 6 7 2 5 8 10 7 7 5 5 14 8 8 8 12 39 44 41
63 65 60 59 57 55 56 57 57 53 58 58 55 51 49 59 56 55 61 67 70 63 37 30 49 72 65 60 40 30 23 17 16 5 3 2 5 3 6 7 5 4 12 7 15 12 10 25 34 64 52 44 53 46
62 64 63 63 63 64 59 62 55 58 58 55 50 49 52 54 55 58 65 64 62 56 44 50 63 79 72 63 61 44 34 38 31 44 12 7 15 7 7 13 7 12 10 17 26 35 33 59 73 62 73 73 74 65
69 68 67 65 65 67 67 67 68 63 63 61 59 58 55 55 56 57 60 63 69 31 12 36 54 62 38 37 65 78 77 39 37 38 21 10 11 16 14 17 20 17 12 11 25 37 42 56 69 71 65 61 63 61
68 69 70 70 71 69 68 68 66 66 64 61 58 53 54 57 55 55 55 61 70 57 6 9 29 44 48 48 53 58 69 64 46 22 12 16 21 18 13 11 22 29 35 20 24 54 47 51 73 58 50 52 51 49
69 69 67 66 67 69 70 71 70 68 68 67 65 58 49 48 46 47 38 68 78 69 21 7 18 46 52 61 53 54 64 63 40 17 16 33 40 25 9 14 28 45 55 62 53 73 68 68 63 49 45 45 45 46
61 62 63 63 65 66 68 68 67 67 65 65 64 62 60 53 47 54 17 5 21 60 25 6 5 18 45 47 60 57 52 34 39 32 26 43 41 22 12 26 38 44 60 68 64 62 47 51 22 34 36 42 47 53
58 59 61 62 62 62 63 65 64 65 62 59 59 57 54 48 47 56 68 65 40 48 22 6 4 2 22 17 18 32 26 27 25 25 16 17 27 26 20 29 46 60 55 53 39 36 37 40 36 35 38 44 54 60
54 56 60 60 60 59 57 57 61 61 57 57 54 48 47 53 51 55 52 47 61 51 8 8 10 9 23 18 18 19 21 7 16 9 10 16 11 15 13 32 43 38 24 23 28 28 27 28 31 35 42 47 54 63
56 54 50 52 58 57 57 57 57 57 51 49 47 30 14 31 42 27 20 18 45 35 28 7 16 5 29 23 12 9 15 7 8 12 13 11 26 52 37 45 29 22 23 24 21 15 27 35 37 42 47 50 56 66
49 49 51 50 49 52 50 55 59 53 50 52 30 23 17 19 33 20 17 15 12 5 11 12 35 6 26 7 8 16 6 5 6 10 12 6 7 7 25 24 21 20 20 21 21 24 27 33 42 49 55 59 65 68
55 52 46 45 48 48 48 38 45 50 47 42 27 27 32 23 17 11 8 8 8 11 8 9 17 31 17 24 8 10 8 5 12 4 5 6 9 14 16 16 16 15 16 18 22 26 30 34 39 48 56 62 64 66
47 52 52 49 45 45 47 44 41 46 53 46 26 23 18 15 14 14 17 6 3 5 21 19 9 23 17 22 6 8 9 10 8 4 7 8 6 9 6 7 8 10 14 19 23 30 36 41 44 48 56 55 59 63
50 46 45 47 46 42 43 44 44 45 39 28 20 14 13 9 10 9 10 10 14 14 39 23 10 7 10 6 4 6 4 7 5 5 11 5 14 11 6 6 8 13 20 26 32 38 43 47 50 51 50 51 53 55
43 42 42 41 43 39 40 42 40 47 31 16 13 13 10 6 9 12 21 17 16 22 29 10 7 8 2 4 7 3 3 9 11 11 5 12 11 6 6 10 15 22 28 34 38 44 47 48 50 52 44 42 40 41
31 28 33 37 38 43 39 37 39 44 24 12 4 6 8 7 4 8 16 13 27 36 21 8 6 5 7 6 9 13 9 13 9 5 13 12 5 7 11 15 21 28 33 37 39 41 43 41 42 43 39 32 32 31
28 40 40 33 33 34 35 39 37 21 6 3 2 14 10 11 12 16 17 20 32 24 6 5 12 14 3 5 7 8 11 5 10 14 9 4 5 9 14 19 23 28 32 32 33 31 32 30 29 29 31 30 27 23
16 16 20 23 31 35 37 33 20 8 9 9 3 2 8 11 19 19 19 29 24 15 15 7 11 5 10 11 8 4 6 14 11 11 3 4 5 10 17 22 23 24 25 26 26 26 24 24 23 25 27 25 20 15
13 20 20 18 32 19 5 5 7 8 6 8 10 10 11 12 13 18 26 27 16 14 19 8 5 7 7 4 5 8 17 11 8 6 3 0 5 9 11 14 16 18 20 22 22 22 22 19 18 19 19 18 15 13
17 16 14 34 28 10 9 9 8 12 5 9 11 11 12 10 13 18 22 18 17 12 5 4 7 5 5 11 10 9 8 8 7 6 9 5 3 6 10 14 17 18 17 18 18 19 20 17 15 14 14 14 13 13
7 9 27 43 17 14 13 7 10 9 12 10 12 6 10 12 7 6 8 12 4 4 1 4 8 12 8 7 4 5 6 5 5 5 11 12 10 12 13 14 15 17 22 25 27 28 28 28 25 21 17 15 15 15
3 9 13 17 11 10 14 14 12 10 8 9 7 5 6 2 7 8 5 4 3 3 3 6 12 8 5 7 8 8 6 8 10 12 14 14 12 10 11 13 13 17 21 24 26 28 29 28 27 24 21 20 18 17
7 4 9 9 10 11 6 6 5 7 5 4 3 4 6 6 6 4 3 2 1 5 9 10 9 10 11 11 11 12 13 15 16 16 14 11 7 5 7 9 12 14 15 17 19 22 23 23 23 24 23 22 20 18
8 8 13 12 16 5 4 10 8 7 7 6 5 5 4 2 6 6 3 6 5 13 15 12 12 16 16 16 17 18 18 18 16 12 8 4 0 4 6 9 10 13 17 18 18 17 18 19 20 19 20 20 20 21
7 21 15 12 14 8 10 7 9 7 5 2 6 2 2 2 4 2 4 4 12 19 17 19 21 19 19 22 22 19 16 13 10 7 3 3 4 5 8 10 11 10 12 12 13 16 17 19 20 22 23 23 23 24
15 17 11 2 10 7 2 6 5 3 4 5 1 4 3 5 6 7 5 3 11 28 30 29 29 27 24 21 18 13 8 5 5 6 8 9 9 12 11 9 8 8 8 11 15 17 20 22 24 25 26 27 28 27
11 7 10 14 4 5 8 7 5 6 5 4 3 3 5 3 7 6 4 9 12 19 23 24 23 20 17 15 12 8 5 4 5 6 10 10 11 11 10 9 8 7 10 14 19 22 25 27 28 30 30 28 32 35
8 13 6 16 9 9 7 4 4 2 3 3 5 4 10 11 7 1 2 12 16 23 25 25 24 21 16 13 10 5 3 4 7 8 8 8 7 8 7 6 8 11 15 19 22 26 29 31 34 35 36 37 36 36
9 14 9 8 7 8 3 4 4 1 2 3 4 4 6 5 4 2 1 12 17 22 24 23 22 18 16 12 9 6 5 6 8 9 8 8 8 7 7 10 14 19 25 28 28 30 31 32 35 40 43 45 44 43
10 16 5 3 4 1 1 2 1 2 4 6 8 9 10 8 8 11 13 12 18 19 19 20 20 19 16 14 12 11 11 12 13 15 16 12 12 16 19 21 23 27 32 34 32 29 31 34 35 38 41 43 44 45
12 8 3 2 2 1 2 7 11 12 9 6 11 10 11 12 7 5 8 13 19 23 25 25 23 21 19 15 13 13 13 14 14 14 17 21 23 24 24 27 29 33 36 37 38 39 41 45 48 51 52 52 51 52
12 7 2 5 4 6 7 9 4 3 3 3 3 6 7 8 7 7 11 2 13 17 17 18 17 11 13 15 17 17 16 16 16 19 22 22 23 23 26 30 33 37 41 46 49 52 55 58 60 60 62 62 62 61
6 7 5 6 5 5 11 15 8 8 2 3 3 6 6 6 4 13 14 13 4 5 12 15 15 16 16 14 13 12 12 10 11 15 20 25 30 34 40 45 49 52 57 60 61 61 63 63 65 65 65 65 63 58
Wind_Direction_850mb
258 256 255 254 255 261 248 250 250 252 252 260 258 246 250 251 247 243 244 241 226 232 248 234 241 234 229 223 178 203 18 272 60 105 145 246 197 228 282 261 208 188 173 224 79 28 293 206 349 156 238 294 281 282
257 254 252 253 251 256 256 250 253 248 249 248 249 245 243 246 250 251 251 249 247 237 244 237 252 252 246 247 243 216 217 173 189 112 240 64 288 344 177 239 181 280 200 192 184 217 261 278 275 289 299 292 292 288
259 258 258 256 258 252 251 255 258 253 255 250 253 255 260 256 256 247 250 255 243 233 244 238 248 257 248 239 241 233 234 234 233 234 194 214 235 151 228 240 247 243 222 255 270 266 257 268 277 277 290 287 291 293
259 257 257 256 257 258 255 253 253 254 253 251 252 254 257 258 255 255 248 247 249 236 230 245 248 239 248 238 235 237 244 240 243 233 224 216 233 211 251 253 234 238 176 214 250 263 268 264 266 273 280 290 291 292
263 261 259 256 256 257 258 258 256 253 253 251 247 251 250 256 258 255 252 247 251 241 291 262 242 238 247 245 243 242 241 240 235 233 225 243 246 241 238 238 245 228 241 235 250 261 263 274 279 283 287 291 289 284
264 263 261 257 257 257 259 258 257 255 252 252 251 246 247 255 255 252 260 259 248 246 253 222 246 239 243 245 240 237 238 237 223 226 239 242 238 205 233 248 256 253 245 243 248 260 270 274 280 285 286 285 286 290
264 263 262 260 259 259 259 257 254 251 251 250 248 246 241 246 243 235 230 261 237 223 230 252 246 215 230 231 232 226 223 209 221 236 239 247 242 216 244 255 268 261 256 255 262 263 270 277 261 278 289 293 294 297
267 265 262 260 259 258 256 255 252 248 245 246 244 240 239 240 248 246 246 253 232 204 214 229 247 302 195 187 198 210 210 213 219 230 238 232 250 231 249 254 256 257 260 261 252 260 263 276 286 290 293 297 299 301
268 268 263 258 257 255 255 254 248 244 242 240 241 235 236 234 235 244 254 256 254 210 221 201 162 230 184 193 182 179 189 197 217 218 224 204 221 225 212 238 249 246 243 253 269 275 281 284 292 299 302 306 308 310
268 267 263 261 256 253 257 251 248 237 232 235 223 214 210 219 233 233 217 219 208 207 217 196 181 198 177 174 184 164 193 210 211 226 205 221 246 250 245 247 242 246 255 269 287 274 285 294 303 306 309 310 310 311
272 268 263 261 255 253 257 244 233 232 219 217 196 192 192 184 184 191 212 203 193 229 215 185 189 141 194 150 187 204 196 215 216 239 176 213 259 213 226 225 235 246 263 279 284 288 292 297 305 308 309 311 312 314
264 264 264 260 258 254 250 237 216 218 218 210 190 168 178 183 193 202 193 182 201 213 193 154 181 188 191 198 164 192 201 177 235 116 184 238 233 192 199 207 224 244 262 275 287 291 293 296 300 302 305 308 310 312
263 259 254 255 259 249 244 243 231 225 228 207 196 163 182 180 200 190 178 230 189 183 175 176 181 169 167 192 195 185 216 228 108 158 225 228 124 160 178 210 234 259 275 285 290 293 297 300 304 306 307 311 311 311
261 258 254 251 248 244 233 227 226 227 223 195 174 190 186 177 207 179 170 179 210 199 179 165 128 161 178 173 188 199 206 134 240 228 230 219 164 165 193 246 264 287 297 301 305 305 307 309 310 312 315 314 312 313
256 259 243 244 239 237 230 220 218 218 227 215 188 186 183 164 104 154 166 153 177 172 152 118 96 161 189 215 207 168 193 234 207 220 222 153 160 198 265 297 308 309 307 308 312 313 314 314 313 311 316 313 312 312
239 246 244 243 241 231 221 224 219 220 226 223 131 100 98 89 347 170 188 187 177 163 144 124 133 146 209 198 201 212 182 218 238 190 152 165 197 291 307 315 317 315 314 313 312 311 312 314 315 315 318 319 316 315
238 248 250 241 230 216 216 217 216 208 209 78 120 125 115 113 151 159 164 167 166 165 173 153 173 207 82 196 232 193 206 214 158 150 162 232 300 312 313 318 319 316 316 315 314 316 316 318 316 319 323 328 324 319
219 240 235 220 210 205 207 193 176 133 73 50 14 18 113 113 135 153 164 165 162 194 163 177 127 156 194 193 249 197 167 162 151 165 190 289 320 324 323 327 329 326 326 327 324 323 321 324 329 333 333 333 334 339
224 231 219 199 187 181 99 54 62 98 80 81 107 132 107 113 124 143 156 169 168 149 134 111 138 200 225 179 177 172 170 170 162 179 201 236 343 343 342 345 349 349 347 342 341 341 342 337 331 332 341 348 353 4
310 293 155 183 191 140 93 48 61 83 107 140 116 100 100 103 124 124 134 147 145 135 93 157 210 176 132 139 134 153 181 184 187 143 145 120 79 35 29 30 25 21 20 22 17 16 17 22 14 10 12 10 16 23
323 112 152 159 135 81 89 75 65 81 118 97 117 102 93 108 124 151 110 117 115 66 263 146 137 137 131 152 180 187 197 192 170 169 148 136 113 83 65 52 44 39 39 37 37 36 33 29 26 27 30 35 37 42
112 87 83 89 85 80 78 54 101 103 85 105 90 65 78 85 33 32 56 55 95 115 123 145 157 144 158 169 178 179 165 147 137 134 131 133 115 98 71 53 42 38 36 36 35 34 33 33 35 37 42 45 44 44
130 74 70 64 86 61 64 80 90 43 90 96 107 79 38 25 15 28 37 293 260 186 166 158 164 166 168 167 158 149 139 134 132 132 132 125 109 59 17 3 13 18 21 21 22 25 24 26 30 32 35 37 38 37
104 55 36 45 39 81 67 34 48 64 65 41 53 75 348 286 10 40 247 268 192 175 172 168 172 177 168 156 144 138 137 137 133 135 137 140 346 343 339 343 347 356 5 9 10 10 11 14 16 15 16 17 17 18
89 10 16 8 24 44 42 25 359 56 80 3 97 40 301 292 68 29 242 270 191 183 180 186 187 184 165 149 144 142 141 139 141 150 181 254 299 318 332 335 338 341 357 9 12 16 17 16 15 13 11 8 6 2
67 5 37 309 348 68 317 59 37 129 116 56 31 309 22 76 60 258 240 226 216 202 198 191 179 171 166 161 159 159 170 196 238 267 269 268 275 291 298 304 322 340 7 17 19 17 13 11 9 7 5 1 357 354
62 338 22 31 20 91 69 63 104 83 73 124 236 61 70 111 245 252 234 206 185 180 174 172 171 165 163 173 181 183 194 244 286 296 303 304 298 290 281 279 301 317 335 343 348 349 350 351 350 349 348 349 345 342
75 27 71 339 26 33 120 62 66 125 219 172 118 172 174 193 227 235 213 181 170 168 167 166 170 178 185 187 190 215 249 303 316 323 313 318 314 302 288 281 296 312 321 326 329 331 331 333 334 335 337 338 339 336
40 357 357 14 15 41 69 129 203 112 137 185 152 247 252 244 239 213 199 190 186 182 184 186 190 194 197 204 220 238 280 301 315 327 329 325 322 326 320 315 313 314 313 316 318 318 319 321 324 327 331 331 330 328
3 359 25 48 83 336 326 83 90 186 245 260 279 287 278 276 275 269 254 231 207 202 199 197 202 208 213 231 240 258 273 287 299 307 308 309 304 310 314 310 306 304 303 306 308 309 308 310 313 316 319 321 322 321
344 336 337 27 219 36 332 309 294 281 263 264 254 258 279 302 337 11 230 207 200 204 211 215 220 225 234 249 268 277 279 284 296 301 302 303 305 308 307 303 301 299 299 298 299 301 302 304 306 308 310 312 314 315
339 24 56 356 320 348 341 345 306 291 261 272 275 302 313 312 315 44 21 285 231 229 230 233 238 250 264 256 257 272 286 290 296 295 299 307 312 313 309 307 306 303 300 298 298 298 298 299 300 303 304 305 307 308
323 341 342 330 342 10 353 346 21 354 292 316 340 335 332 327 277 24 20 11 4 198 210 219 224 231 248 267 277 278 282 292 300 309 310 309 309 307 306 306 305 304 303 300 297 295 294 294 295 297 298 300 302 304